User: anonymous   Login
Location: Armidale
(30.5016°S, 151.6662°E)
Time: 01:37:33
(UTC+10:00)
Language:

DIWATA 2B (PO-101) - Orbit

View from above orbital plane
View from above orbital plane
View from above satellite
View from above satellite

Ground track
Ground track

The orbit data is extracted from the following two-line orbital elements,

1 43678U 18084H   21215.54088330  .00000125  00000-0  18192-4 0  9994
2 43678  97.9296 341.0766 0008416 252.5085 107.5167 14.91771985150459
Epoch (UTC): 03 August 2021 12:58:52
Eccentricity: 0.0008416
inclination: 97.9296°
perigee height: 586 km
apogee height: 598 km
right ascension of ascending node: 341.0766°
argument of perigee: 252.5085°
revolutions per day: 14.91771985
mean anomaly at epoch: 107.5167°
orbit number at epoch: 15045

The dashed part of the orbit path shows where the satellite is in the earth's shadow,  

DLR